Accueil
METAR-TAF:

METAR-TAF

Aéroports :

Majuro, Îles Marshall

NWS Office

latitude: 07-05N, longitude: 171-12E, altitude: 4 m

Observation

Le bulletin a été fait il y a 52 minutes, à 20:51 UTC
Vent 12 kt de est
Température 29°C
Humidité 79%
Pression 1006 hPa
Visibilité: 24.1 km
Quelques nuages à une hauteur de 1600 ft
Nuages épars à une hauteur de 5000 ft
Nuages fragmentés à une hauteur de 30000 ft

METAR: PKMR 222051Z 09012KT 15SM FEW016 SCT050 BKN300 29/25 A2972 RMK SLP068 8/801 T02870247 52014

Heure: 09:43 (21:43 UTC)


TAF: absent

Observations et prévisions météorologiques de plus de 4000 aéroports (messages METAR et TAF).

Les stations disponibles sont représentées par des disques jaunes et rouges sur la carte.

Passer la souris dessus pour voir le nom de la station.

Cliquer dessus pour voir les observations et prévisions météorologiques.

Pour changer de carte: cliquez sur les boutons verts avec une croix noire pour zoomer, sur le bouton vert avec un tiret pour effectuer un zoom arrière, ou sur les flèches vertes pour les cartes adjacentes.


METAR-TAF: